Simultaneous Nadir Overpasses (SNOs) Predictions

Prediction of SNOs between NOAA-20 and METOP-B Satellite Orbit:

Table of predicted SNOs for the next 14.0 days since TLE Epoch: 11/2/2018
Index Date (NOAA-20) Time (NOAA-20) Lat,Lon (NOAA-20) SZA (NOAA-20 ) Date (METOP-B) Time (METOP-B) Lat,Lon (METOP-B) SZA (METOP-B ) Distance(km) Time Diff (sec)
1 11/16/2018 03:54:31 -73.59, -68.78 87.70 11/16/2018 03:55:37 -73.53, -65.81 87.84 93.68 66
2 11/16/2018 04:45:13 73.40, 98.97 92.11 11/16/2018 04:46:21 73.33, 101.06 91.98 67.03 68
3 11/16/2018 05:35:55 -73.30, -93.48 88.00 11/16/2018 05:37:05 -73.21, -91.86 88.13 52.83 70
4 11/16/2018 06:26:37 73.10, 74.25 91.81 11/16/2018 06:27:49 73.01, 75.02 91.69 27.13 72
5 11/16/2018 07:17:19 -73.00,-118.21 88.29 11/16/2018 07:18:32 -72.95,-117.78 88.37 15.40 73
6 11/16/2018 08:08:02 72.86, 49.41 91.57 11/16/2018 08:09:14 72.84, 49.32 91.55 3.49 72
7 11/16/2018 08:58:46 -72.86,-143.28 88.43 11/16/2018 08:59:55 -72.88,-143.26 88.41 2.26 69
8 11/16/2018 09:49:32 72.86, 24.02 91.59 11/16/2018 09:50:35 72.87, 24.06 91.60 1.49 63
9 11/16/2018 10:40:16 -72.86,-168.66 88.40 11/16/2018 10:41:17 -72.86,-168.64 88.41 0.80 61
10 11/16/2018 11:31:02 72.87, -1.36 91.62 11/16/2018 11:31:57 72.86, -1.32 91.60 2.09 55
11 11/16/2018 12:21:46 -72.87, 165.95 88.38 11/16/2018 12:22:39 -72.85, 165.98 88.41 2.97 53
12 11/16/2018 13:12:31 72.82, -26.64 91.59 11/16/2018 13:13:19 72.84, -26.69 91.60 2.33 48
13 11/16/2018 14:03:15 -72.83, 140.67 88.41 11/16/2018 14:04:01 -72.83, 140.61 88.41 2.03 46
14 11/16/2018 14:54:01 72.83, -52.03 91.61 11/16/2018 14:54:41 72.82, -52.07 91.60 1.57 40
15 11/16/2018 15:44:45 -72.83, 115.28 88.38 11/16/2018 15:45:23 -72.81, 115.23 88.41 2.67 38
16 11/16/2018 16:35:31 72.84, -77.42 91.63 11/16/2018 16:36:02 72.86, -77.34 91.65 3.41 31
17 11/16/2018 17:26:15 -72.84, 89.90 88.36 11/16/2018 17:26:44 -72.85, 89.97 88.36 2.44 29
18 11/16/2018 18:17:01 72.84,-102.80 91.66 11/16/2018 18:17:24 72.84,-102.71 91.65 2.95 23
19 11/16/2018 19:07:45 -72.84, 64.51 88.34 11/16/2018 19:08:06 -72.83, 64.59 88.35 2.99 21
20 11/16/2018 19:58:30 72.80,-128.08 91.63 11/16/2018 19:58:46 72.82,-128.09 91.65 2.87 16
21 11/16/2018 20:49:14 -72.80, 39.23 88.37 11/16/2018 20:49:28 -72.81, 39.22 88.35 1.72 14
22 11/16/2018 21:40:00 72.80,-153.47 91.65 11/16/2018 21:40:08 72.81,-153.46 91.65 0.40 8




NCC Satellite Simultaneous Nadir Overpasses (SNOs) Prediction Service
